BAW2239 EGKK-TTPP

Flight info

Callsign BAW2239
Flight time N/A
Altitude 36000
Route IMVUR N63 SAM N19 ADKIK DCT JOZMA DCT GAPLI/M083F360 DCT TAMEL DCT GONAN DCT 41N020W DCT GINSU/M083F380 DCT 35N030W 30N040W 24N050W/M083F400 19N055W DCT FISST/N0476F400 DCT BGI UR515 TAB DCT
Aircraft B772/H-SDE1E3FGHIJ3J5J6M1M2P2RWXYZ/LB1D1

Departure

Time N/A
Airport London Gatwick Airport (EGKK)

Arrival

Time 2026-04-30 19:06
Airport Piarco International Airport (TTPP)
Time Latitude Longitude Altitude Speed Heading
2026-04-30 11:33 44.41356 -14.96213 36067 ft 445 kts 230°
2026-04-30 11:33 44.37291 -15.02764 36056 ft 445 kts 230°
2026-04-30 11:34 44.33227 -15.09298 36064 ft 445 kts 230°
2026-04-30 11:34 44.29184 -15.15784 36057 ft 445 kts 230°
2026-04-30 11:35 44.25101 -15.22318 36063 ft 446 kts 230°
2026-04-30 11:35 44.21011 -15.28850 36063 ft 446 kts 229°
2026-04-30 11:36 44.16945 -15.35328 36063 ft 447 kts 229°
2026-04-30 11:36 44.12843 -15.41848 36052 ft 447 kts 229°
2026-04-30 11:37 44.08740 -15.48357 36063 ft 447 kts 229°
2026-04-30 11:37 44.04632 -15.54857 36064 ft 447 kts 229°
2026-04-30 11:38 44.00513 -15.61359 36063 ft 447 kts 229°
2026-04-30 11:38 43.96396 -15.67842 36064 ft 448 kts 229°
2026-04-30 11:39 43.92295 -15.74287 36064 ft 448 kts 229°
2026-04-30 11:39 43.88155 -15.80780 36052 ft 449 kts 228°
2026-04-30 11:40 43.84006 -15.87271 36061 ft 450 kts 228°
2026-04-30 11:40 43.79850 -15.93758 36064 ft 451 kts 228°
2026-04-30 11:41 43.75699 -16.00220 36066 ft 451 kts 228°
2026-04-30 11:41 43.71519 -16.06716 36062 ft 453 kts 228°
2026-04-30 11:42 43.67319 -16.13227 36065 ft 454 kts 228°
2026-04-30 11:42 43.63113 -16.19733 36063 ft 454 kts 228°
2026-04-30 11:43 43.58895 -16.26241 36063 ft 455 kts 228°
2026-04-30 11:43 43.54674 -16.32741 36062 ft 455 kts 228°
2026-04-30 11:44 43.50441 -16.39244 36055 ft 455 kts 227°
2026-04-30 11:44 43.46231 -16.45696 36064 ft 455 kts 227°
2026-04-30 11:45 43.41984 -16.52190 36060 ft 456 kts 227°
2026-04-30 11:45 43.37734 -16.58676 36057 ft 456 kts 227°
2026-04-30 11:46 43.33469 -16.65167 36061 ft 457 kts 227°
2026-04-30 11:46 43.29196 -16.71658 36061 ft 458 kts 227°
2026-04-30 11:47 43.24938 -16.78110 36061 ft 459 kts 227°
2026-04-30 11:47 43.20637 -16.84614 36061 ft 460 kts 227°
2026-04-30 11:48 43.16326 -16.91117 36059 ft 461 kts 227°
2026-04-30 11:48 43.12000 -16.97630 36055 ft 462 kts 226°
2026-04-30 11:49 43.07693 -17.04097 36055 ft 462 kts 226°
2026-04-30 11:49 43.03350 -17.10605 36050 ft 463 kts 226°
2026-04-30 11:50 42.98996 -17.17113 36053 ft 464 kts 226°
2026-04-30 11:50 42.94622 -17.23638 36050 ft 465 kts 226°
2026-04-30 11:51 42.90278 -17.30103 36049 ft 465 kts 226°
2026-04-30 11:51 42.85896 -17.36612 36045 ft 466 kts 225°
2026-04-30 11:52 42.81502 -17.43120 36046 ft 466 kts 225°
2026-04-30 11:52 42.77125 -17.49590 36045 ft 467 kts 225°
2026-04-30 11:53 42.72712 -17.56099 36041 ft 468 kts 225°
2026-04-30 11:53 42.68286 -17.62612 36041 ft 468 kts 225°
2026-04-30 11:54 42.63854 -17.69120 36047 ft 469 kts 225°
2026-04-30 11:54 42.59442 -17.75584 36048 ft 469 kts 225°
2026-04-30 11:55 42.54993 -17.82087 36037 ft 470 kts 224°
2026-04-30 11:55 42.50534 -17.88589 36033 ft 470 kts 224°
2026-04-30 11:56 42.46072 -17.95081 36031 ft 470 kts 224°
2026-04-30 11:56 42.41636 -18.01522 36029 ft 470 kts 224°
2026-04-30 11:57 42.37164 -18.08000 36031 ft 471 kts 224°
2026-04-30 11:57 42.32687 -18.14472 36028 ft 471 kts 224°
2026-04-30 11:58 42.28196 -18.20948 36025 ft 472 kts 224°
2026-04-30 11:58 42.23721 -18.27387 36018 ft 473 kts 224°
2026-04-30 11:59 42.19214 -18.33858 36017 ft 473 kts 224°
2026-04-30 11:59 42.14691 -18.40337 36020 ft 474 kts 224°
2026-04-30 12:00 42.10163 -18.46809 36031 ft 474 kts 224°
2026-04-30 12:00 42.05649 -18.53246 36022 ft 475 kts 224°
2026-04-30 12:01 42.01103 -18.59716 36015 ft 475 kts 224°
2026-04-30 12:01 41.96553 -18.66176 36007 ft 474 kts 224°
2026-04-30 12:02 41.92773 -18.71532 36007 ft 474 kts 224°
2026-04-30 12:02 41.87496 -18.78993 36012 ft 473 kts 224°
2026-04-30 12:03 41.81426 -18.87551 36003 ft 472 kts 224°
2026-04-30 12:04 41.76918 -18.93891 35998 ft 472 kts 224°
2026-04-30 12:04 41.72385 -19.00253 35991 ft 471 kts 224°
2026-04-30 12:05 41.67852 -19.06598 35986 ft 470 kts 224°
2026-04-30 12:05 41.63358 -19.12878 36005 ft 470 kts 224°
2026-04-30 12:06 41.58835 -19.19182 36000 ft 470 kts 224°
2026-04-30 12:06 41.54297 -19.25496 35984 ft 470 kts 224°
2026-04-30 12:07 41.49759 -19.31796 35978 ft 470 kts 224°
2026-04-30 12:07 41.45251 -19.38039 35978 ft 470 kts 224°
2026-04-30 12:08 41.40708 -19.44319 35974 ft 470 kts 224°
2026-04-30 12:08 41.36157 -19.50596 35979 ft 470 kts 224°
2026-04-30 12:09 41.31607 -19.56857 35969 ft 470 kts 224°
2026-04-30 12:09 41.27088 -19.63064 35968 ft 468 kts 224°
2026-04-30 12:10 41.22549 -19.69285 35965 ft 467 kts 224°
2026-04-30 12:10 41.18026 -19.75471 35966 ft 466 kts 224°
2026-04-30 12:11 41.13508 -19.81636 35967 ft 465 kts 224°
2026-04-30 12:11 41.09023 -19.87746 35954 ft 464 kts 224°
2026-04-30 12:12 41.04511 -19.93881 35952 ft 464 kts 224°
2026-04-30 12:12 41.00035 -20.00051 35950 ft 464 kts 227°
2026-04-30 12:13 40.96151 -20.06914 35943 ft 465 kts 233°
2026-04-30 12:13 40.92416 -20.13840 35960 ft 466 kts 233°
2026-04-30 12:14 40.88624 -20.20810 35944 ft 467 kts 232°
2026-04-30 12:14 40.84809 -20.27772 35940 ft 468 kts 232°
2026-04-30 12:15 40.80982 -20.34732 35936 ft 468 kts 232°
2026-04-30 12:15 40.77149 -20.41685 35938 ft 468 kts 232°
2026-04-30 12:16 40.73312 -20.48632 35943 ft 468 kts 233°
2026-04-30 12:16 40.69473 -20.55567 35934 ft 467 kts 233°
2026-04-30 12:17 40.63741 -20.65896 35931 ft 466 kts 233°
2026-04-30 12:17 40.59908 -20.72783 35929 ft 465 kts 232°
2026-04-30 12:18 40.56097 -20.79615 35926 ft 465 kts 232°
2026-04-30 12:18 40.52267 -20.86465 35932 ft 465 kts 232°
2026-04-30 12:19 40.48428 -20.93318 35922 ft 465 kts 232°
2026-04-30 12:19 40.44587 -21.00157 35922 ft 465 kts 233°
2026-04-30 12:20 40.40746 -21.06984 35920 ft 463 kts 233°
2026-04-30 12:20 40.36944 -21.13726 35913 ft 462 kts 233°
2026-04-30 12:21 40.33122 -21.20489 35912 ft 461 kts 233°
2026-04-30 12:21 40.29297 -21.27242 35913 ft 460 kts 233°
2026-04-30 12:22 40.25475 -21.33974 35905 ft 459 kts 233°
2026-04-30 12:22 40.21664 -21.40675 35897 ft 459 kts 233°
2026-04-30 12:23 40.17872 -21.47327 35908 ft 459 kts 233°
2026-04-30 12:23 40.14050 -21.54017 35890 ft 460 kts 233°
2026-04-30 12:24 40.10223 -21.60701 35895 ft 459 kts 233°
2026-04-30 12:24 40.06394 -21.67375 35890 ft 458 kts 233°
2026-04-30 12:25 40.02567 -21.74033 35890 ft 458 kts 233°
2026-04-30 12:25 39.98743 -21.80670 35890 ft 457 kts 233°
2026-04-30 12:26 39.94914 -21.87302 35883 ft 457 kts 233°
2026-04-30 12:26 39.91109 -21.93878 35887 ft 457 kts 233°
2026-04-30 12:27 39.87276 -22.00489 35882 ft 457 kts 233°
2026-04-30 12:27 39.83434 -22.07102 35879 ft 457 kts 233°
2026-04-30 12:28 39.79594 -22.13698 35877 ft 456 kts 233°
2026-04-30 12:28 39.75763 -22.20265 35872 ft 455 kts 233°
2026-04-30 12:29 39.71954 -22.26779 35873 ft 455 kts 233°
2026-04-30 12:29 39.68125 -22.33315 35869 ft 454 kts 233°
2026-04-30 12:30 39.64294 -22.39841 35873 ft 454 kts 233°
2026-04-30 12:30 39.60467 -22.46347 35876 ft 453 kts 233°
2026-04-30 12:31 39.56627 -22.52861 35872 ft 454 kts 233°
2026-04-30 12:31 39.52792 -22.59354 35862 ft 454 kts 233°
2026-04-30 12:32 39.48945 -22.65853 35853 ft 454 kts 233°
2026-04-30 12:32 39.45124 -22.72295 35853 ft 453 kts 233°
2026-04-30 12:33 39.41284 -22.78756 35860 ft 452 kts 233°
2026-04-30 12:33 39.37454 -22.85188 35857 ft 451 kts 233°
2026-04-30 12:34 39.33628 -22.91599 35854 ft 450 kts 233°
2026-04-30 12:34 39.29806 -22.97992 35846 ft 449 kts 233°
2026-04-30 12:35 39.26010 -23.04327 35845 ft 448 kts 233°
2026-04-30 12:35 39.22190 -23.10692 35849 ft 448 kts 233°
2026-04-30 12:36 39.18369 -23.17044 35828 ft 448 kts 233°
2026-04-30 12:36 39.14569 -23.23348 35838 ft 446 kts 233°
2026-04-30 12:37 39.10764 -23.29649 35847 ft 444 kts 233°
2026-04-30 12:37 39.06963 -23.35931 35846 ft 443 kts 233°
2026-04-30 12:38 39.03177 -23.42176 35841 ft 442 kts 233°
2026-04-30 12:38 38.99414 -23.48371 35838 ft 442 kts 233°
2026-04-30 12:39 38.95623 -23.54599 35844 ft 443 kts 233°
2026-04-30 12:39 38.91817 -23.60842 35841 ft 444 kts 233°
2026-04-30 12:40 38.88000 -23.67089 35841 ft 445 kts 233°
2026-04-30 12:40 38.84166 -23.73350 35835 ft 444 kts 233°
2026-04-30 12:41 38.80350 -23.79570 35833 ft 443 kts 233°
2026-04-30 12:41 38.76571 -23.85720 35837 ft 441 kts 233°
2026-04-30 12:42 38.72771 -23.91892 35837 ft 439 kts 233°
2026-04-30 12:42 38.68990 -23.98021 35837 ft 438 kts 233°
2026-04-30 12:43 38.65209 -24.04138 35840 ft 437 kts 233°
2026-04-30 12:43 38.62074 -24.09202 35843 ft 437 kts 233°
2026-04-30 12:44 38.57675 -24.16294 35842 ft 438 kts 233°
2026-04-30 12:44 38.53886 -24.22389 35842 ft 439 kts 233°
2026-04-30 12:45 38.50728 -24.27461 35833 ft 437 kts 234°
2026-04-30 12:45 38.46941 -24.33530 35834 ft 435 kts 234°
2026-04-30 12:46 38.43171 -24.39562 35843 ft 433 kts 234°
2026-04-30 12:46 38.39408 -24.45573 35837 ft 432 kts 234°
2026-04-30 12:47 38.35688 -24.51505 35834 ft 431 kts 234°
2026-04-30 12:47 38.31938 -24.57473 35844 ft 431 kts 234°
2026-04-30 12:48 38.28187 -24.63432 35845 ft 431 kts 234°
2026-04-30 12:48 38.24412 -24.69417 35843 ft 432 kts 234°
2026-04-30 12:49 38.20644 -24.75379 35839 ft 433 kts 234°
2026-04-30 12:49 38.16899 -24.81296 35832 ft 432 kts 234°
2026-04-30 12:50 38.15010 -24.84276 35940 ft 433 kts 234°
2026-04-30 12:50 38.13114 -24.87264 36175 ft 433 kts 234°
2026-04-30 12:50 38.11229 -24.90232 36431 ft 432 kts 234°
2026-04-30 12:50 38.09345 -24.93196 36663 ft 431 kts 234°
2026-04-30 12:51 38.07455 -24.96166 36878 ft 431 kts 234°
2026-04-30 12:51 38.05567 -24.99131 37080 ft 431 kts 234°
2026-04-30 12:51 38.03680 -25.02093 37259 ft 432 kts 234°
2026-04-30 12:51 38.01790 -25.05055 37457 ft 431 kts 235°
2026-04-30 12:52 37.99926 -25.07973 37661 ft 431 kts 235°
2026-04-30 12:52 37.98035 -25.10933 37759 ft 433 kts 235°
2026-04-30 12:52 37.94218 -25.16901 37842 ft 437 kts 235°
2026-04-30 12:53 37.90387 -25.22874 37839 ft 434 kts 235°
2026-04-30 12:53 37.86587 -25.28785 37838 ft 430 kts 235°
2026-04-30 12:54 37.82822 -25.34636 37849 ft 427 kts 235°
2026-04-30 12:54 37.79065 -25.40464 37850 ft 426 kts 235°
2026-04-30 12:55 37.75338 -25.46236 37851 ft 426 kts 235°
2026-04-30 12:55 37.71572 -25.52061 37858 ft 428 kts 235°
2026-04-30 12:56 37.67783 -25.57909 37859 ft 431 kts 235°
2026-04-30 12:56 37.63971 -25.63780 37860 ft 432 kts 235°
2026-04-30 12:57 37.60168 -25.69628 37857 ft 434 kts 235°
2026-04-30 12:57 37.56319 -25.75534 37857 ft 435 kts 235°
2026-04-30 12:58 37.52466 -25.81437 37822 ft 435 kts 235°
2026-04-30 12:58 37.48644 -25.87279 37844 ft 433 kts 235°
2026-04-30 12:59 37.44816 -25.93122 37847 ft 432 kts 235°
2026-04-30 12:59 37.40995 -25.98944 37846 ft 430 kts 235°
2026-04-30 13:00 37.37187 -26.04737 37854 ft 429 kts 235°
2026-04-30 13:00 37.33383 -26.10514 37873 ft 428 kts 235°
2026-04-30 13:01 37.29607 -26.16239 37873 ft 428 kts 235°
2026-04-30 13:01 37.25804 -26.21995 37877 ft 428 kts 235°
2026-04-30 13:02 37.22001 -26.27740 37866 ft 428 kts 236°
2026-04-30 13:02 37.18186 -26.33493 37849 ft 428 kts 236°
2026-04-30 13:03 37.14363 -26.39249 37862 ft 429 kts 236°
2026-04-30 13:03 37.10562 -26.44960 37876 ft 429 kts 236°
2026-04-30 13:04 37.06724 -26.50719 37870 ft 430 kts 235°
2026-04-30 13:04 37.02875 -26.56483 37872 ft 430 kts 235°
2026-04-30 13:05 36.99054 -26.62194 37882 ft 430 kts 236°
2026-04-30 13:06 36.93288 -26.70795 37883 ft 430 kts 235°
2026-04-30 13:06 36.89443 -26.76519 37886 ft 430 kts 235°
2026-04-30 13:07 36.85598 -26.82232 37861 ft 429 kts 235°
2026-04-30 13:07 36.81757 -26.87929 37873 ft 428 kts 235°
2026-04-30 13:08 36.77928 -26.93598 37889 ft 426 kts 235°
2026-04-30 13:08 36.74133 -26.99209 37889 ft 424 kts 235°
2026-04-30 13:09 36.70325 -27.04830 37891 ft 423 kts 235°
2026-04-30 13:09 36.66525 -27.10430 37892 ft 423 kts 235°
2026-04-30 13:10 36.62724 -27.16022 37893 ft 422 kts 235°
2026-04-30 13:10 36.58948 -27.21567 37889 ft 422 kts 235°
2026-04-30 13:11 36.55141 -27.27148 37902 ft 422 kts 235°
2026-04-30 13:11 36.51333 -27.32723 37858 ft 422 kts 235°
2026-04-30 13:12 36.47556 -27.38242 37887 ft 421 kts 235°
2026-04-30 13:12 36.43763 -27.43776 37899 ft 421 kts 235°
2026-04-30 13:13 36.38059 -27.52081 37910 ft 420 kts 236°
2026-04-30 13:14 36.32373 -27.60343 37911 ft 419 kts 236°
2026-04-30 13:14 36.27106 -27.68857 37915 ft 413 kts 242°
2026-04-30 13:15 36.22382 -27.77787 37901 ft 413 kts 242°
2026-04-30 13:16 36.19234 -27.83683 37915 ft 412 kts 242°
2026-04-30 13:16 36.16064 -27.89609 37918 ft 412 kts 242°
2026-04-30 13:17 36.11314 -27.98473 37913 ft 410 kts 242°
2026-04-30 13:18 36.06603 -28.07243 37930 ft 409 kts 242°
2026-04-30 13:18 36.01882 -28.16008 37923 ft 407 kts 242°
2026-04-30 13:19 35.98740 -28.21832 37929 ft 407 kts 242°
2026-04-30 13:19 35.95600 -28.27640 37931 ft 406 kts 242°
2026-04-30 13:20 35.92481 -28.33401 37934 ft 406 kts 242°
2026-04-30 13:20 35.89319 -28.39231 37934 ft 406 kts 242°
2026-04-30 13:21 35.86189 -28.44993 37934 ft 406 kts 242°
2026-04-30 13:22 35.81458 -28.53681 37935 ft 407 kts 242°
2026-04-30 13:22 35.76711 -28.62379 37943 ft 408 kts 242°
2026-04-30 13:23 35.71977 -28.71031 37893 ft 408 kts 242°
2026-04-30 13:24 35.65615 -28.82622 37949 ft 408 kts 242°
2026-04-30 13:25 35.59265 -28.94154 37955 ft 408 kts 242°
2026-04-30 13:26 35.51275 -29.08611 37955 ft 409 kts 242°
2026-04-30 13:28 35.43791 -29.22098 37959 ft 410 kts 242°
2026-04-30 13:28 35.38965 -29.30766 37961 ft 410 kts 242°
2026-04-30 13:29 35.32525 -29.42303 37965 ft 411 kts 241°
2026-04-30 13:31 35.24474 -29.56669 37957 ft 410 kts 241°
2026-04-30 13:32 35.16394 -29.71032 37977 ft 411 kts 241°
2026-04-30 13:33 35.09896 -29.82540 37977 ft 411 kts 241°
2026-04-30 13:34 35.05010 -29.91170 37969 ft 412 kts 241°
2026-04-30 13:35 34.98744 -30.02794 37993 ft 407 kts 247°
2026-04-30 13:36 34.93456 -30.15045 37986 ft 408 kts 246°
2026-04-30 13:36 34.89449 -30.24228 37988 ft 409 kts 246°
2026-04-30 13:37 34.85439 -30.33395 37989 ft 410 kts 246°
2026-04-30 13:38 34.81406 -30.42590 37975 ft 410 kts 246°
2026-04-30 13:39 34.76028 -30.54818 37996 ft 411 kts 246°
2026-04-30 13:40 34.71968 -30.64018 37997 ft 413 kts 246°
2026-04-30 13:40 34.69251 -30.70163 37975 ft 413 kts 246°
2026-04-30 13:41 34.66526 -30.76311 38010 ft 413 kts 246°
2026-04-30 13:41 34.63792 -30.82474 37988 ft 414 kts 246°
2026-04-30 13:42 34.61054 -30.88631 37993 ft 414 kts 246°
2026-04-30 13:42 34.56960 -30.97816 37983 ft 414 kts 246°
2026-04-30 13:43 34.54205 -31.03985 38003 ft 414 kts 246°
2026-04-30 13:43 34.51456 -31.10130 38005 ft 414 kts 246°
2026-04-30 13:44 34.48718 -31.16238 38008 ft 414 kts 246°
2026-04-30 13:44 34.45959 -31.22382 38013 ft 414 kts 246°
2026-04-30 13:45 34.41817 -31.31587 38014 ft 414 kts 246°
2026-04-30 13:46 34.39067 -31.37683 38012 ft 414 kts 246°
2026-04-30 13:46 34.36296 -31.43818 38010 ft 414 kts 246°
2026-04-30 13:47 34.33525 -31.49939 37994 ft 414 kts 246°
2026-04-30 13:47 34.30771 -31.56014 37999 ft 414 kts 245°
2026-04-30 13:48 34.27995 -31.62127 38007 ft 414 kts 245°
2026-04-30 13:48 34.25213 -31.68241 38006 ft 415 kts 245°
2026-04-30 13:49 34.22424 -31.74361 37996 ft 415 kts 245°
2026-04-30 13:49 34.19647 -31.80443 37992 ft 415 kts 245°
2026-04-30 13:50 34.16851 -31.86556 38011 ft 415 kts 245°
2026-04-30 13:50 34.12660 -31.95698 38014 ft 415 kts 245°
2026-04-30 13:51 34.09860 -32.01795 38014 ft 414 kts 245°
2026-04-30 13:51 34.07079 -32.07838 38006 ft 414 kts 245°
2026-04-30 13:52 34.04279 -32.13912 38010 ft 414 kts 245°
2026-04-30 13:52 34.01475 -32.19985 38009 ft 414 kts 245°
2026-04-30 13:53 33.98667 -32.26054 38011 ft 414 kts 245°
2026-04-30 13:53 33.95859 -32.32115 38013 ft 414 kts 245°
2026-04-30 13:54 33.93061 -32.38144 38002 ft 414 kts 245°
2026-04-30 13:54 33.90245 -32.44200 38014 ft 414 kts 245°
2026-04-30 13:55 33.87428 -32.50249 38014 ft 414 kts 245°
2026-04-30 13:55 33.84606 -32.56298 38014 ft 414 kts 245°
2026-04-30 13:56 33.81777 -32.62353 38009 ft 415 kts 245°
2026-04-30 13:56 33.78941 -32.68411 38017 ft 415 kts 245°
2026-04-30 13:57 33.76125 -32.74416 38016 ft 415 kts 245°
2026-04-30 13:57 33.73286 -32.80459 38016 ft 415 kts 245°
2026-04-30 13:58 33.69017 -32.89529 38009 ft 415 kts 245°
2026-04-30 13:59 33.66167 -32.95570 38017 ft 415 kts 245°
2026-04-30 13:59 33.63320 -33.01595 38015 ft 414 kts 245°
2026-04-30 14:00 33.60492 -33.07569 38016 ft 414 kts 245°
2026-04-30 14:00 33.56221 -33.16575 38019 ft 413 kts 245°
2026-04-30 14:01 33.53381 -33.22551 38017 ft 412 kts 244°
2026-04-30 14:01 33.50544 -33.28509 38015 ft 411 kts 244°
2026-04-30 14:02 33.47710 -33.34452 38016 ft 410 kts 244°
2026-04-30 14:02 33.44878 -33.40379 38013 ft 409 kts 244°
2026-04-30 14:03 33.42070 -33.46250 38021 ft 408 kts 244°
2026-04-30 14:03 33.39254 -33.52124 38010 ft 406 kts 244°
2026-04-30 14:04 33.36442 -33.57982 38013 ft 404 kts 244°
2026-04-30 14:04 33.33660 -33.63769 38012 ft 403 kts 244°
2026-04-30 14:05 33.30865 -33.69574 38015 ft 402 kts 244°
2026-04-30 14:05 33.28077 -33.75355 38011 ft 400 kts 244°
2026-04-30 14:06 33.23904 -33.83989 38011 ft 398 kts 244°
2026-04-30 14:07 33.19759 -33.92544 38010 ft 397 kts 244°
2026-04-30 14:08 33.15600 -34.01111 38011 ft 397 kts 244°
2026-04-30 14:08 33.11452 -34.09635 38011 ft 397 kts 244°
2026-04-30 14:09 33.09136 -34.14384 38012 ft 398 kts 244°
2026-04-30 14:10 33.04498 -34.23877 38016 ft 398 kts 244°
2026-04-30 14:10 33.02174 -34.28624 37981 ft 398 kts 244°
2026-04-30 14:11 32.99381 -34.34322 38002 ft 397 kts 244°
2026-04-30 14:11 32.96594 -34.39998 38008 ft 396 kts 244°
2026-04-30 14:12 32.93808 -34.45663 38020 ft 396 kts 244°
2026-04-30 14:12 32.91017 -34.51329 38019 ft 395 kts 244°
2026-04-30 14:13 32.88251 -34.56937 38004 ft 394 kts 244°
2026-04-30 14:13 32.85474 -34.62558 38004 ft 394 kts 244°
2026-04-30 14:14 32.82699 -34.68166 38007 ft 393 kts 244°
2026-04-30 14:14 32.79925 -34.73765 38005 ft 392 kts 244°
2026-04-30 14:15 32.77153 -34.79351 38005 ft 392 kts 244°
2026-04-30 14:15 32.74378 -34.84932 38004 ft 391 kts 244°
2026-04-30 14:16 32.71623 -34.90467 38017 ft 391 kts 244°
2026-04-30 14:16 32.68851 -34.96028 38008 ft 391 kts 244°
2026-04-30 14:17 32.66076 -35.01586 38004 ft 391 kts 243°
2026-04-30 14:17 32.63301 -35.07137 38001 ft 391 kts 243°
2026-04-30 14:18 32.60538 -35.12654 38001 ft 391 kts 243°
2026-04-30 14:18 32.56348 -35.21005 38002 ft 392 kts 243°
2026-04-30 14:19 32.52166 -35.29321 38000 ft 393 kts 243°
2026-04-30 14:20 32.49365 -35.34880 38000 ft 392 kts 243°
2026-04-30 14:20 32.45167 -35.43196 38000 ft 392 kts 243°
2026-04-30 14:21 32.42386 -35.48697 37997 ft 392 kts 243°
2026-04-30 14:22 32.38184 -35.56992 37989 ft 391 kts 243°
2026-04-30 14:22 32.33999 -35.65234 37994 ft 390 kts 243°
2026-04-30 14:23 32.28386 -35.76260 37970 ft 391 kts 243°
2026-04-30 14:24 32.24161 -35.84539 37993 ft 392 kts 243°
2026-04-30 14:25 32.18510 -35.95584 37999 ft 395 kts 242°
2026-04-30 14:26 32.14231 -36.03926 37986 ft 396 kts 242°
2026-04-30 14:27 32.09962 -36.12228 37984 ft 396 kts 242°
2026-04-30 14:27 32.07097 -36.17789 37979 ft 397 kts 242°
2026-04-30 14:28 32.02792 -36.26132 37954 ft 396 kts 241°
2026-04-30 14:28 31.99924 -36.31679 37969 ft 396 kts 241°
2026-04-30 14:29 31.94676 -36.41808 37974 ft 395 kts 241°
2026-04-30 14:31 31.87031 -36.56518 37954 ft 395 kts 241°
2026-04-30 14:31 31.82718 -36.64791 37960 ft 395 kts 241°
2026-04-30 14:32 31.78399 -36.73056 37940 ft 395 kts 241°
2026-04-30 14:33 31.75526 -36.78547 37932 ft 397 kts 240°
2026-04-30 14:33 31.71182 -36.86832 37939 ft 399 kts 240°
2026-04-30 14:34 31.68264 -36.92387 37937 ft 400 kts 240°
2026-04-30 14:34 31.65334 -36.97955 37935 ft 401 kts 240°
2026-04-30 14:35 31.60931 -37.06311 37925 ft 402 kts 240°
2026-04-30 14:36 31.57983 -37.11894 37923 ft 402 kts 240°
2026-04-30 14:36 31.55047 -37.17446 37916 ft 403 kts 240°
2026-04-30 14:37 31.52087 -37.23035 37915 ft 403 kts 240°
2026-04-30 14:37 31.49122 -37.28627 37916 ft 403 kts 240°
2026-04-30 14:38 31.46174 -37.34178 37913 ft 403 kts 240°
2026-04-30 14:38 31.43208 -37.39755 37901 ft 403 kts 240°
2026-04-30 14:39 31.40238 -37.45330 37902 ft 403 kts 240°
2026-04-30 14:39 31.37272 -37.50892 37899 ft 402 kts 240°
2026-04-30 14:40 31.32833 -37.59199 37900 ft 401 kts 240°
2026-04-30 14:40 31.29876 -37.64722 37900 ft 400 kts 240°
2026-04-30 14:41 31.26915 -37.70247 37902 ft 400 kts 240°
2026-04-30 14:41 31.23975 -37.75724 37894 ft 400 kts 240°
2026-04-30 14:42 31.21004 -37.81251 37897 ft 401 kts 240°
2026-04-30 14:42 31.18048 -37.86742 37877 ft 401 kts 240°
2026-04-30 14:43 31.15067 -37.92271 37897 ft 401 kts 240°
2026-04-30 14:43 31.12087 -37.97792 37879 ft 402 kts 240°
2026-04-30 14:44 31.09120 -38.03280 37876 ft 402 kts 240°
2026-04-30 14:44 31.06127 -38.08808 37896 ft 403 kts 240°
2026-04-30 14:45 31.03132 -38.14333 37879 ft 403 kts 240°
2026-04-30 14:45 31.00131 -38.19860 37883 ft 403 kts 240°
2026-04-30 14:46 30.97124 -38.25391 37887 ft 404 kts 240°
2026-04-30 14:46 30.94625 -38.29981 37883 ft 404 kts 240°
2026-04-30 14:47 30.91102 -38.36443 37883 ft 404 kts 240°
2026-04-30 14:47 30.88098 -38.41944 37880 ft 405 kts 240°
2026-04-30 14:48 30.85072 -38.47478 37882 ft 405 kts 240°
2026-04-30 14:48 30.82039 -38.53019 37883 ft 405 kts 240°
2026-04-30 14:49 30.79005 -38.58552 37878 ft 405 kts 240°
2026-04-30 14:49 30.75990 -38.64042 37866 ft 405 kts 240°
2026-04-30 14:50 30.71431 -38.72330 37884 ft 405 kts 240°
2026-04-30 14:51 30.66871 -38.80603 37864 ft 405 kts 240°
2026-04-30 14:52 30.62304 -38.88872 37858 ft 405 kts 240°
2026-04-30 14:52 30.57756 -38.97088 37841 ft 404 kts 240°
2026-04-30 14:53 30.53183 -39.05332 37863 ft 404 kts 240°
2026-04-30 14:54 30.47102 -39.16271 37861 ft 405 kts 240°
2026-04-30 14:55 30.43023 -39.23591 37874 ft 406 kts 240°
2026-04-30 14:56 30.36872 -39.34604 37862 ft 408 kts 240°
2026-04-30 14:57 30.32254 -39.42852 37872 ft 409 kts 240°
2026-04-30 14:58 30.26042 -39.53919 37859 ft 409 kts 240°
2026-04-30 14:58 30.21401 -39.62168 37862 ft 409 kts 240°
2026-04-30 15:00 30.13618 -39.75966 37859 ft 409 kts 240°
2026-04-30 15:01 30.07407 -39.86944 37859 ft 409 kts 240°
2026-04-30 15:01 30.02723 -39.95204 37860 ft 409 kts 240°
2026-04-30 15:02 29.99601 -40.00707 37861 ft 409 kts 240°
2026-04-30 15:03 29.92159 -40.14649 37854 ft 409 kts 242°
2026-04-30 15:04 29.84668 -40.28663 37851 ft 412 kts 242°
2026-04-30 15:06 29.77134 -40.42679 37857 ft 413 kts 242°
2026-04-30 15:07 29.71063 -40.53939 37858 ft 414 kts 242°
2026-04-30 15:08 29.64967 -40.65213 37856 ft 415 kts 242°
2026-04-30 15:09 29.57332 -40.79291 37855 ft 416 kts 242°
2026-04-30 15:10 29.51188 -40.90584 37862 ft 417 kts 242°
2026-04-30 15:11 29.41958 -41.07489 37862 ft 417 kts 242°
2026-04-30 15:13 29.34226 -41.21598 37861 ft 418 kts 242°
2026-04-30 15:14 29.23402 -41.41267 37860 ft 417 kts 242°
2026-04-30 15:17 29.09402 -41.66572 37864 ft 420 kts 242°
2026-04-30 15:19 28.96837 -41.89150 37867 ft 422 kts 242°
2026-04-30 17:39 18.14132 -55.85964 39981 ft 439 kts 231°
2026-04-30 17:42 17.90733 -56.06790 39981 ft 448 kts 222°
2026-04-30 17:43 17.78769 -56.15458 39968 ft 447 kts 223°
2026-04-30 17:44 17.63429 -56.26610 39980 ft 448 kts 223°
2026-04-30 17:47 17.40305 -56.43371 39973 ft 449 kts 223°
2026-04-30 17:48 17.29126 -56.51455 39957 ft 450 kts 223°
2026-04-30 17:52 16.85715 -56.82735 39965 ft 451 kts 222°
2026-04-30 17:54 16.62421 -56.99445 39965 ft 452 kts 222°
2026-04-30 17:56 16.41693 -57.14274 39962 ft 452 kts 222°
2026-04-30 17:58 16.26126 -57.25384 39958 ft 452 kts 222°
2026-04-30 18:00 16.05316 -57.40203 39956 ft 453 kts 221°
2026-04-30 18:01 15.92332 -57.49429 39958 ft 453 kts 221°
2026-04-30 18:02 15.76697 -57.60519 39957 ft 454 kts 221°
2026-04-30 18:04 15.61068 -57.71585 39949 ft 454 kts 221°
2026-04-30 18:06 15.41054 -57.85724 39950 ft 454 kts 221°
2026-04-30 18:08 15.22796 -57.98594 39946 ft 453 kts 220°
2026-04-30 18:10 15.01946 -58.13257 39944 ft 453 kts 220°
2026-04-30 18:11 14.83650 -58.26096 39938 ft 454 kts 220°
2026-04-30 18:13 14.70607 -58.35232 39940 ft 454 kts 220°
2026-04-30 18:14 14.57522 -58.44383 39936 ft 454 kts 220°
2026-04-30 18:15 14.41850 -58.55327 39935 ft 454 kts 220°
2026-04-30 18:16 14.31396 -58.62617 39933 ft 453 kts 219°
2026-04-30 18:17 14.26163 -58.66263 39934 ft 454 kts 219°
2026-04-30 18:18 14.18304 -58.71735 39932 ft 455 kts 219°
2026-04-30 18:18 14.13084 -58.75366 39932 ft 455 kts 219°
2026-04-30 18:19 14.07828 -58.79020 39920 ft 456 kts 219°
2026-04-30 18:19 14.02564 -58.82678 39932 ft 456 kts 219°
2026-04-30 18:20 13.97288 -58.86343 39933 ft 457 kts 219°
2026-04-30 18:20 13.92004 -58.90011 39932 ft 458 kts 219°
2026-04-30 18:21 13.86723 -58.93674 39929 ft 458 kts 219°
2026-04-30 18:21 13.81464 -58.97321 39929 ft 458 kts 219°
2026-04-30 18:22 13.76169 -59.00989 39921 ft 458 kts 219°
2026-04-30 18:22 13.68233 -59.06485 39927 ft 458 kts 219°
2026-04-30 18:23 13.62939 -59.10148 39924 ft 458 kts 219°
2026-04-30 18:23 13.57650 -59.13806 39925 ft 457 kts 219°
2026-04-30 18:24 13.49761 -59.19259 39917 ft 457 kts 219°
2026-04-30 18:25 13.44489 -59.22900 39928 ft 456 kts 219°
2026-04-30 18:25 13.36578 -59.28362 39935 ft 456 kts 219°
2026-04-30 18:26 13.28667 -59.33818 39926 ft 456 kts 219°
2026-04-30 18:27 13.20752 -59.39273 39910 ft 456 kts 219°
2026-04-30 18:28 13.12858 -59.44710 39917 ft 455 kts 219°
2026-04-30 18:28 13.05002 -59.50135 39912 ft 455 kts 219°
2026-04-30 18:29 12.94575 -59.57512 39920 ft 455 kts 220°
2026-04-30 18:30 12.84175 -59.64858 39923 ft 455 kts 219°
2026-04-30 18:31 12.76344 -59.70376 39926 ft 455 kts 219°
2026-04-30 18:32 12.68521 -59.75885 39921 ft 455 kts 219°
2026-04-30 18:33 12.60692 -59.81393 39924 ft 455 kts 219°
2026-04-30 18:33 12.52879 -59.86887 39917 ft 455 kts 219°
2026-04-30 18:34 12.45053 -59.92385 39919 ft 455 kts 219°
2026-04-30 18:35 12.39835 -59.96050 39916 ft 454 kts 219°
2026-04-30 18:35 12.34656 -59.99684 39905 ft 454 kts 219°
2026-04-30 18:36 12.26849 -60.05160 39913 ft 453 kts 219°
2026-04-30 18:37 12.19043 -60.10631 39912 ft 453 kts 219°
2026-04-30 18:37 12.13830 -60.14283 39913 ft 453 kts 219°
2026-04-30 18:38 12.08625 -60.17927 39908 ft 453 kts 219°
2026-04-30 18:38 12.03439 -60.21558 39432 ft 460 kts 219°
2026-04-30 18:38 12.00794 -60.23410 38810 ft 459 kts 218°
2026-04-30 18:39 11.98158 -60.25252 38064 ft 458 kts 218°
2026-04-30 18:39 11.95534 -60.27086 37351 ft 456 kts 218°
2026-04-30 18:39 11.92924 -60.28908 36870 ft 450 kts 218°
2026-04-30 18:39 11.90344 -60.30708 36373 ft 446 kts 218°
2026-04-30 18:40 11.87792 -60.32490 35901 ft 442 kts 218°
2026-04-30 18:40 11.85295 -60.34234 35442 ft 438 kts 218°
2026-04-30 18:40 11.82790 -60.35984 34966 ft 435 kts 218°
2026-04-30 18:40 11.80294 -60.37727 34492 ft 433 kts 218°
2026-04-30 18:41 11.77807 -60.39464 34006 ft 431 kts 218°
2026-04-30 18:41 11.75333 -60.41192 33477 ft 429 kts 218°
2026-04-30 18:41 11.72879 -60.42906 32987 ft 427 kts 217°
2026-04-30 18:41 11.70432 -60.44613 32505 ft 424 kts 217°
2026-04-30 18:42 11.68008 -60.46304 32040 ft 421 kts 217°
2026-04-30 18:42 11.63201 -60.49656 31132 ft 415 kts 216°
2026-04-30 18:42 11.60824 -60.51312 30658 ft 413 kts 216°
2026-04-30 18:45 11.37710 -60.67408 25758 ft 392 kts 213°
2026-04-30 18:45 11.35460 -60.68973 25307 ft 391 kts 213°
2026-04-30 18:45 11.33221 -60.70530 24892 ft 388 kts 213°
2026-04-30 18:46 11.31031 -60.72052 24515 ft 384 kts 213°
2026-04-30 18:46 11.28834 -60.73580 24159 ft 380 kts 213°
2026-04-30 18:46 11.26650 -60.75098 23777 ft 378 kts 213°
2026-04-30 18:46 11.24480 -60.76606 23363 ft 376 kts 213°
2026-04-30 18:47 11.22329 -60.78101 22918 ft 373 kts 213°
2026-04-30 18:47 11.20191 -60.79586 22458 ft 371 kts 213°
2026-04-30 18:47 11.18061 -60.81064 21994 ft 370 kts 212°
2026-04-30 18:47 11.16022 -60.82648 21533 ft 369 kts 220°
2026-04-30 18:48 11.14239 -60.84530 21100 ft 369 kts 227°
2026-04-30 18:48 11.12698 -60.86615 20651 ft 366 kts 235°
2026-04-30 18:48 11.11813 -60.88064 20226 ft 361 kts 236°
2026-04-30 18:48 11.10509 -60.90243 19388 ft 361 kts 236°
2026-04-30 18:49 11.09207 -60.92434 18550 ft 362 kts 237°
2026-04-30 18:49 11.07900 -60.94630 17904 ft 362 kts 236°
2026-04-30 18:49 11.06595 -60.96817 17481 ft 359 kts 236°
2026-04-30 18:49 11.05294 -60.98989 17042 ft 357 kts 236°
2026-04-30 18:50 11.04001 -61.01142 16625 ft 356 kts 236°
2026-04-30 18:50 11.02728 -61.03258 16213 ft 354 kts 236°
2026-04-30 18:50 11.01445 -61.05389 15804 ft 352 kts 236°
2026-04-30 18:50 11.00167 -61.07508 15389 ft 351 kts 236°
2026-04-30 18:51 10.98892 -61.09623 14969 ft 349 kts 236°
2026-04-30 18:51 10.97623 -61.11727 14543 ft 349 kts 236°
2026-04-30 18:51 10.96352 -61.13831 14137 ft 348 kts 236°
2026-04-30 18:51 10.95085 -61.15930 13711 ft 348 kts 236°
2026-04-30 18:52 10.93819 -61.18026 13239 ft 347 kts 236°
2026-04-30 18:52 10.92558 -61.20114 12812 ft 345 kts 236°
2026-04-30 18:52 10.91306 -61.22186 12391 ft 342 kts 236°
2026-04-30 18:52 10.90063 -61.24246 11976 ft 341 kts 236°
2026-04-30 18:53 10.88826 -61.26294 11569 ft 339 kts 236°
2026-04-30 18:53 10.87591 -61.28335 11166 ft 337 kts 236°
2026-04-30 18:53 10.86366 -61.30361 10768 ft 335 kts 236°
2026-04-30 18:53 10.85150 -61.32373 10403 ft 332 kts 236°
2026-04-30 18:54 10.83972 -61.34322 10254 ft 322 kts 237°
2026-04-30 18:54 10.82817 -61.36232 10109 ft 312 kts 237°
2026-04-30 18:54 10.81696 -61.38086 9930 ft 304 kts 237°
2026-04-30 18:54 10.80589 -61.39916 9604 ft 302 kts 237°
2026-04-30 18:55 10.79492 -61.41728 9269 ft 299 kts 237°
2026-04-30 18:55 10.77326 -61.45307 8639 ft 295 kts 237°
2026-04-30 18:55 10.76255 -61.47076 8324 ft 292 kts 237°
2026-04-30 18:56 10.74131 -61.50581 7714 ft 289 kts 237°
2026-04-30 18:56 10.73093 -61.52296 7410 ft 287 kts 237°
2026-04-30 18:56 10.72050 -61.54020 7102 ft 285 kts 237°
2026-04-30 18:57 10.69980 -61.57435 6505 ft 282 kts 237°
2026-04-30 18:57 10.68951 -61.59134 6183 ft 281 kts 237°
2026-04-30 18:57 10.67942 -61.60800 6030 ft 268 kts 237°
2026-04-30 18:58 10.66095 -61.63848 5663 ft 239 kts 237°
2026-04-30 18:58 10.65059 -61.65080 5451 ft 220 kts 208°
2026-04-30 18:58 10.63704 -61.65481 5407 ft 198 kts 177°
2026-04-30 18:59 10.60970 -61.65235 5214 ft 197 kts 150°
2026-04-30 19:00 10.59626 -61.61572 4746 ft 193 kts 96°
2026-04-30 19:00 10.59522 -61.60233 4607 ft 188 kts 93°
2026-04-30 19:00 10.59473 -61.57562 4171 ft 190 kts 91°
2026-04-30 19:01 10.59475 -61.54903 3683 ft 185 kts 90°
2026-04-30 19:01 10.59479 -61.53620 3443 ft 182 kts 90°
2026-04-30 19:02 10.59487 -61.51039 2982 ft 182 kts 91°
2026-04-30 19:02 10.59494 -61.48500 2513 ft 177 kts 90°
2026-04-30 19:03 10.59500 -61.46115 2076 ft 160 kts 90°
2026-04-30 19:03 10.59507 -61.43974 1687 ft 146 kts 91°
2026-04-30 19:04 10.59513 -61.41889 1338 ft 149 kts 91°
2026-04-30 19:04 10.59520 -61.39908 951 ft 138 kts 91°
2026-04-30 19:05 10.59530 -61.37962 607 ft 136 kts 92°
2026-04-30 19:05 10.59531 -61.36052 238 ft 135 kts 92°
2026-04-30 19:06 10.59537 -61.34199 25 ft 111 kts 90°
2026-04-30 19:06 10.59537 -61.33605 20 ft 57 kts 89°
2026-04-30 19:06 10.59538 -61.33080 24 ft 17 kts 89°
2026-04-30 19:07 10.59675 -61.32965 21 ft 14 kts 343°
2026-04-30 19:07 10.59709 -61.33051 21 ft 14 kts 274°
2026-04-30 19:08 10.59711 -61.33247 21 ft 14 kts 270°
2026-04-30 19:08 10.59709 -61.33443 21 ft 14 kts 270°
2026-04-30 19:08 10.59709 -61.33541 22 ft 14 kts 270°
2026-04-30 19:09 10.59714 -61.33718 21 ft 10 kts 295°
2026-04-30 19:09 10.59779 -61.33740 25 ft 10 kts 355°
2026-04-30 19:09 10.59850 -61.33740 25 ft 10 kts
2026-04-30 19:10 10.59945 -61.33801 22 ft 0 kts 308°
2026-04-30 19:10 10.59956 -61.33816 24 ft 0 kts 308°